This is the latest recevied weather packets stored in our database for station/object WW3TRG. If no packets are shown the sender has not sent any weather packets the latest 1 day(s).
| Time | Temp. | Humidity | Pressure | Rain* | Wind** | Luminosity | Snow |
|---|---|---|---|---|---|---|---|
| 1778039974 | 15° C | 85% | 1008.5 hPa | 0 mm | - | 0 W/m² | - |
| 1778039672 | 14.44° C | 84% | 1008.4 hPa | 0 mm | - | 0 W/m² | - |
| 1778039066 | 15° C | 83% | 1008.6 hPa | 0 mm | - | 0 W/m² | - |
| 1778038763 | 15° C | 83% | 1008.5 hPa | 0 mm | - | 0 W/m² | - |
| 1778038157 | 15° C | 83% | 1008.6 hPa | 0 mm | - | 0 W/m² | - |
| 1778037854 | 15.56° C | 82% | 1008.4 hPa | 0 mm | - | 0 W/m² | - |
| 1778037248 | 15° C | 82% | 1008.5 hPa | 0 mm | - | 0 W/m² | - |
| 1778036340 | 15.56° C | 81% | 1008.4 hPa | 0 mm | - | 0 W/m² | - |
| 1778035734 | 15.56° C | 80% | 1008.5 hPa | 0 mm | - | 0 W/m² | - |
| 1778035431 | 16.11° C | 80% | 1008.5 hPa | 0 mm | - | 0 W/m² | - |
| 1778034218 | 16.67° C | 79% | 1008.2 hPa | 0 mm | - | 0 W/m² | - |
| 1778033916 | 16.67° C | 79% | 1008.7 hPa | 0 mm | - | 0 W/m² | - |
| 1778033612 | 16.67° C | 79% | 1008.4 hPa | 0 mm | - | 0 W/m² | - |
| 1778033309 | 16.67° C | 78% | 1008.6 hPa | 0 mm | - | 0 W/m² | - |
| 1778032402 | 17.22° C | 75% | 1008.2 hPa | 0 mm | - | 0 W/m² | - |
| 1778032098 | 17.78° C | 75% | 1008.2 hPa | 0 mm | - | 0 W/m² | - |
| 1778031795 | 17.22° C | 75% | 1008.1 hPa | 0 mm | - | 0 W/m² | - |
| 1778031492 | 17.78° C | 75% | 1008.3 hPa | 0 mm | - | 0 W/m² | - |
| 1778031189 | 17.78° C | 75% | 1008.4 hPa | 0 mm | - | 0 W/m² | - |
| 1778030886 | 17.78° C | 75% | 1008.1 hPa | 0 mm | - | 0 W/m² | - |
| 1778030583 | 17.78° C | 73% | 1007.9 hPa | 0 mm | - | 0 W/m² | - |
| 1778030280 | 18.33° C | 73% | 1008 hPa | 0 mm | - | 0 W/m² | - |
| 1778029976 | 17.78° C | 73% | 1007.8 hPa | 0 mm | - | 0 W/m² | - |
| 1778029674 | 18.33° C | 72% | 1007.9 hPa | 0 mm | - | 0 W/m² | - |
| 1778029372 | 18.33° C | 72% | 1007.7 hPa | 0 mm | - | 0 W/m² | - |
* Rain latest hour (hover to see other rain measurements)
** Current wind speed in m/s (hover to see current wind gust speed)